Location: Falniów
(50.3639°N, 19.9642°E)
Time: 19:28:27
(UTC+00:00)

BREEZE-M DEB (TANK) - Pass Details

Date: 18 January 2026
Orbit: 312 x 11317 km, 49.7° (Epoch: 15 February)

Event Time Altitude Azimuth Distance (km) Brightness Sun altitude
Exits shadow 05:21:58 16° 260° (W) 930 4.0 -10.9°
Maximum altitude 05:23:23 32° 201° (SSW) 572 3.4 -10.6°
Drops below altitude 10° 05:25:46 10° 134° (SE) 1,406 6.6 -10.3°
Sets 05:28:23 0° 124° (ESE) 2,705 8.7 -9.9°
